Location: Obersdorf
(47.4079°N, 10.2781°E)
Time: 06:21:10
(UTC+02:00)

Nauka - Pass Details

Date: 05 October 2021
Orbit: 417 x 423 km, 51.6° (Epoch: 19 October)

Event Time Altitude Azimuth Distance (km) Brightness Sun altitude
Rises 20:21:19 0° 287° (WNW) 2,364 ? -16.2°
Reaches altitude 10° 20:23:52 10° 268° (W) 1,498 ? -16.6°
Maximum altitude 20:26:13 18° 223° (SW) 1,103 ? -17.0°
Drops below altitude 10° 20:28:35 10° 178° (S) 1,492 ? -17.4°
Enters shadow 20:28:37 10° 177° (S) 1,501 ? -17.4°
